Regional Weather Roundup
Issued by NWS

Home | Current Version | Previous Version | Graphics & Text | Print | Product List | Glossary On
Versions: 1 2 3 4 5 6 7 8 9 10 11 12 13 14 15 16 17 18 19 20 21 22 23 24 25 26 27 28 29 30 31 32 33 34 35 36 37 38 39 40 41 42 43 44 45 46 47 48 49 50
000
ASUS43 KTOP 211908
RWRKS

WEATHER ROUNDUP FOR KANSAS
NATIONAL WEATHER SERVICE GOODLAND KS
200 PM CDT MON JUL 21 2014

NOTE:  "FAIR" INDICATES FEW OR NO CLOUDS BELOW 12,000 FEET WITH NO
SIGNIFICANT WEATHER AND/OR OBSTRUCTIONS TO VISIBILITY.

KSZ001>006-013>018-027>032-041>047-212000-
NORTHWEST KANSAS

CITY           SKY/WX    TMP DP  RH WIND       PRES   REMARKS
GOODLAND       PTSUNNY   96  62  32 VRB7      30.03S HX  97
HAYS           SUNNY     97  66  36 S18       29.94F HX 100
HILL CITY      SUNNY    102  66  30 S12G20    29.92F HX 106
RUSSELL        SUNNY     95  73  48 S18G25    29.92F HX 104
$$

KSZ061>065-074>080-084>089-212000-
SOUTHWEST KANSAS

CITY           SKY/WX    TMP DP  RH WIND       PRES   REMARKS
DODGE CITY     SUNNY     95  68  41 S21       29.99F HX  99
ELKHART          N/A     95  66  38 S13         N/A  HX  98
GARDEN CITY    SUNNY     97  69  40 S16G24    29.99F HX 103
GREAT BEND     SUNNY     93  73  52 S16G24    29.95S HX 102
LIBERAL        SUNNY    100  66  32 S18G24    30.01F HX 104
PRATT          SUNNY     90  72  55 S14G21    30.01F HX  96
$$

KSZ066>073-081>083-090>101-212000-
SOUTHEAST KANSAS

CITY           SKY/WX    TMP DP  RH WIND       PRES   REMARKS
CHANUTE        MOSUNNY   89  74  60 S9G21     30.03F HX  98
COFFEYVILLE    MOSUNNY   89  74  60 S10       30.02F HX  98
HUTCHINSON     SUNNY     95  73  48 S18G24    29.97F HX 104
MEDICINE LODGE   N/A     94  74  52 S15G21    29.98F HX 104
NEWTON         SUNNY     93  72  49 S18       30.02F HX 100
PARSONS        MOSUNNY   89  74  60 S10       30.04F HX  98
WICHITA INTL   MOSUNNY   91  76  61 S18       29.98F HX 103
WICHITA JABRA  SUNNY     91  76  61 S17G23    29.99F HX 103
WICHITA MCCONL MOSUNNY   90  78  66 S17       30.00F HX 104
WINFIELD       SUNNY     89  78  70 S14       30.02F HX 103
$$

KSZ007>012-019>026-033>040-048>060-102>105-212000-
NORTHEAST KANSAS

CITY           SKY/WX    TMP DP  RH WIND       PRES   REMARKS
CONCORDIA      SUNNY     98  71  41 SW16G25   29.90F HX 106
EMPORIA        MOSUNNY   91  73  55 S16       29.99F HX  99
LAWRENCE       MOSUNNY   92  74  55 S16       29.96F HX 101
MANHATTAN      PTSUNNY   99  72  41 SW17G24   29.91F HX 108
MARYSVILLE     MOSUNNY   97  73  46 S20G28    29.89F HX 107
OLATHE IND     SUNNY     90  73  57 S15       30.00F HX  98
OLATHE EXE     SUNNY     88  75  65 S14G22    30.00F HX  97
SALINA         SUNNY    101  72  39 SW16G24   29.92F HX 110
TOPEKA BILLARD MOSUNNY   94  74  52 S12G24    29.95F HX 104
TOPEKA FORBES  MOSUNNY   94  73  50 S16       29.96F HX 103
$$


USA.gov is the U.S. government's official web portal to all federal, state and local government web resources and services.